{"data":{"norad_id":43254,"epoch":"2026-09-20T04:45:27.130752Z","epoch_age_seconds":41544,"freshness":"FRESH","line1":"1 43254U 18030F   26263.19823068  .00000114  00000+0  33557-4 0  9998","line2":"2 43254  86.3916 250.6718 0002180  87.9495 272.1951 14.34217857443757","mean_motion":14.34217857,"eccentricity":0.000218,"inclination_deg":86.3916,"raan_deg":250.6718,"arg_perigee_deg":87.9495,"mean_anomaly_deg":272.1951,"bstar":3.3557e-5,"rev_number":44375,"period_min":100.40315653384,"perigee_km":776.10683321899,"apogee_km":779.22676367511,"semimajor_km":7155.803798447,"source":"CELESTRAK","updated_at":"2026-09-20T09:00:36.329625Z"}}